Weather History for Fort Indiantown Gap, PA

Change the Weather History Date:

Tuesday, November 12, 2013

  Actual Average Record
Temperature  
Mean Temperature 40 °F -  
Max Temperature 49 °F 50 °F 64 °F (2012)
Min Temperature 31 °F 34 °F 24 °F (2011)
Degree Days  
Heating Degree Days 24    
Moisture  
Dew Point 22 °F    
Average Humidity 55    
Maximum Humidity 80    
Minimum Humidity 31    
Precipitation  
Precipitation 0.00 in - - ()
Sea Level Pressure  
Sea Level Pressure 30.17 in    
Wind  
Wind Speed 7 mph (NNW)    
Max Wind Speed 18 mph    
Max Gust Speed 32 mph    
Visibility 10 miles    
Events Rain , Snow    
Averages and records for this station are not official NWS values.
T = Trace of Precipitation, MM = Missing Value Source: NWS Daily Summary

Daily Weather History Graph

Daily Weather History Graph

Search for Another Location

Airport:

Trip Planner

Search our weather history database for the weather conditions in past years. The results will help you decide how hot, cold, wet, or windy it might be!

Date:

Astronomy

Nov. 12, 2013 Rise Set
Actual Time 6:49 AM EST 4:51 PM EST
Civil Twilight 6:20 AM EST 5:20 PM EST
Nautical Twilight 5:47 AM EST 5:53 PM EST
Astronomical Twilight 5:15 AM EST 6:25 PM EST
Moon 2:05 PM EST (11/12) 1:35 AM EST (11/12)
Length of Visible Light 11h 00m
Length of Day
10h 02m
Waxing Gibbous, 76% of the Moon is Illuminated
Nov 12
Waxing Gibbous
Nov 17
Full
Nov 25
Last Quarter
Dec 2
New
Dec 9
First Quarter

Hourly Weather History & Observations

Time (EST) Temp. Windchill Dew Point Humidity Pressure Visibility Wind Dir Wind Speed Gust Speed Precip Events Conditions
12:12 AM 44.6 °F - 35.6 °F 71% 29.99 in 10.0 mi West 2.3 mph - N/A Rain Light Rain
12:22 AM 48.2 °F - 32.0 °F 54% 29.99 in 10.0 mi WSW 4.6 mph - N/A   Overcast
12:28 AM 48.2 °F - 35.6 °F 62% 29.99 in 10.0 mi SW 5.8 mph - N/A Rain Light Rain
12:38 AM 48.2 °F - 35.6 °F 62% 29.98 in 10.0 mi West 3.5 mph - N/A   Overcast
12:43 AM 48.2 °F - 35.6 °F 62% 29.98 in 10.0 mi West 4.6 mph - N/A Rain Light Rain
12:49 AM 48.2 °F - 35.6 °F 62% 29.98 in 10.0 mi West 2.3 mph - N/A   Overcast
12:58 AM 46.9 °F - 36.9 °F 68% 30.00 in 10.0 mi West 3.5 mph - 0.00 in   Overcast
1:58 AM 49.5 °F - 31.6 °F 50% 29.99 in 10.0 mi NW 9.2 mph 17.3 mph N/A   Overcast
2:58 AM 48.4 °F - 32.2 °F 54% 30.01 in 10.0 mi WNW 9.2 mph - N/A   Overcast
3:56 AM 41.0 °F 32.2 °F 32.0 °F 70% 30.02 in 10.0 mi North 18.4 mph 32.2 mph N/A Rain Light Rain
3:58 AM 41.0 °F 33.9 °F 32.0 °F 70% 30.04 in 10.0 mi NNW 12.7 mph 32.2 mph N/A Rain Light Rain
4:19 AM 39.2 °F 32.0 °F 30.2 °F 70% 30.04 in 10.0 mi North 11.5 mph 21.9 mph N/A   Overcast
4:39 AM 39.2 °F 32.5 °F 32.0 °F 75% 30.05 in 10.0 mi North 10.4 mph 17.3 mph N/A   Overcast
4:42 AM 39.2 °F 34.2 °F 32.0 °F 75% 30.05 in 10.0 mi North 6.9 mph 20.7 mph N/A Rain Light Rain
4:58 AM 37.6 °F 31.0 °F 31.1 °F 77% 30.09 in 10.0 mi NNW 9.2 mph 24.2 mph 0.00 in Rain Light Rain
5:58 AM 33.4 °F 22.7 °F 27.5 °F 79% 30.13 in 7.0 mi North 17.3 mph 25.3 mph 0.00 in Snow Light Snow
6:04 AM 32.0 °F 22.1 °F 26.6 °F 80% 30.11 in 6.0 mi North 13.8 mph 25.3 mph N/A Snow Light Snow
6:45 AM 32.0 °F 28.7 °F 24.8 °F 75% 30.14 in 10.0 mi Variable 3.5 mph 20.7 mph N/A   Clear
6:54 AM 32.0 °F 22.1 °F 23.0 °F 69% 30.15 in 10.0 mi North 13.8 mph 21.9 mph N/A Rain Light Rain
6:58 AM 32.7 °F 24.5 °F 23.7 °F 69% 30.17 in 10.0 mi North 10.4 mph 21.9 mph 0.00 in Rain Light Rain
7:04 AM 32.0 °F 24.8 °F 23.0 °F 69% 30.16 in 10.0 mi North 8.1 mph 18.4 mph N/A   Clear
7:58 AM 33.1 °F 25.5 °F 20.5 °F 60% 30.21 in 10.0 mi North 9.2 mph - 0.00 in   Clear
8:55 AM 32.0 °F 22.1 °F 19.4 °F 60% 30.21 in 10.0 mi NW 13.8 mph 18.4 mph N/A   Mostly Cloudy
8:58 AM 33.4 °F 25.9 °F 18.9 °F 55% 30.23 in 10.0 mi NNW 9.2 mph 18.4 mph N/A   Mostly Cloudy
9:58 AM 34.0 °F 25.0 °F 19.4 °F 55% 30.24 in 10.0 mi NNW 12.7 mph 19.6 mph N/A   Mostly Cloudy
10:13 AM 33.8 °F 24.8 °F 17.6 °F 52% 30.23 in 10.0 mi NNE 12.7 mph 19.6 mph N/A   Mostly Cloudy
10:58 AM 35.6 °F 30.7 °F 16.9 °F 47% 30.26 in 10.0 mi NW 5.8 mph 18.4 mph N/A   Mostly Cloudy
11:58 AM 34.9 °F 27.7 °F 12.2 °F 39% 30.26 in 10.0 mi NW 9.2 mph 17.3 mph N/A   Mostly Cloudy
12:17 PM 35.6 °F 27.5 °F 12.2 °F 38% 30.24 in 10.0 mi NNW 11.5 mph 21.9 mph N/A   Scattered Clouds
12:58 PM 36.0 °F 29.0 °F 13.8 °F 40% 30.25 in 10.0 mi NNE 9.2 mph 20.7 mph N/A   Scattered Clouds
1:23 PM 37.4 °F 29.3 °F 14.0 °F 38% 30.22 in 10.0 mi NNW 12.7 mph 20.7 mph N/A   Clear
1:24 PM 37.4 °F 29.3 °F 14.0 °F 38% 30.22 in 10.0 mi North 12.7 mph 20.7 mph N/A   Clear
1:58 PM 38.7 °F 34.3 °F 12.9 °F 35% 30.25 in 10.0 mi Variable 5.8 mph 18.4 mph N/A   Clear
2:58 PM 37.0 °F 29.8 °F 11.7 °F 35% 30.27 in 10.0 mi NW 10.4 mph - N/A   Clear
3:58 PM 36.7 °F 28.4 °F 10.4 °F 34% 30.29 in 10.0 mi North 12.7 mph 18.4 mph N/A   Clear
4:58 PM 35.8 °F 30.1 °F 8.2 °F 32% 30.31 in 10.0 mi North 6.9 mph - N/A   Clear
5:58 PM 35.1 °F - 6.8 °F 31% 30.33 in 10.0 mi Variable 2.3 mph - N/A   Clear
6:58 PM 34.0 °F 28.0 °F 8.2 °F 34% 30.34 in 10.0 mi Variable 6.9 mph - N/A   Clear
7:58 PM 33.3 °F 27.9 °F 9.1 °F 37% 30.35 in 10.0 mi Variable 5.8 mph - N/A   Clear
8:58 PM 33.1 °F 30.0 °F 10.2 °F 39% 30.37 in 10.0 mi West 3.5 mph - N/A   Clear
9:58 PM 32.4 °F 29.1 °F 11.1 °F 41% 30.38 in 10.0 mi Variable 3.5 mph - N/A   Clear
10:58 PM 32.0 °F 25.6 °F 12.2 °F 44% 30.38 in 10.0 mi Variable 6.9 mph - N/A   Clear
11:58 PM 31.5 °F 23.5 °F 13.5 °F 47% 30.38 in 10.0 mi North 9.2 mph - N/A   Clear